This demonstration page uses our WeatherBlox Daily Observations layout. Learn more.

Left ArrowRight Arrow

39.92423, -83.80882

Hourly Observations for August 29, 2022

Temp ( °F °C ) Dew Point ( °F °C ) Humidity (%) Winds ( mph kmh ) Pressure ( in mb ) Visibility ( mi km ) Precip ( " mm )
12:56 am 00:56 Clear 77 25 76 24.4 96 96 S 6 9 29.97 1015 10 16 0.00 0.00
1:56 am 01:56 Clear 75 23.9 75 23.9 100 100 S 6 9 29.96 1014 10 16 0.00 0.00
2:56 am 02:56 Clear 74 23.3 N/A N/A S 6 9 29.96 1014 10 16 0.00 0.00
3:56 am 03:56 Clear 73 22.8 N/A N/A S 6 9 29.96 1015 10 16 0.00 0.00
4:56 am 04:56 Mostly Clear 73 22.8 N/A N/A S 5 7 29.97 1015 10 16 0.00 0.00
5:56 am 05:56 Mostly Clear 72 22.2 N/A N/A Calm 29.98 1015 10 16 0.00 0.00
6:56 am 06:56 Mostly Clear 72 22.2 N/A N/A S 5 7 29.99 1016 10 16 0.00 0.00
7:56 am 07:56 Mostly Cloudy 73 22.8 N/A N/A S 6 9 30.00 1016 10 16 0.00 0.00
8:56 am 08:56 Sunny 77 25 77 25 100 100 undefined N/A 30.00 1016 10 16 0.00 0.00
9:56 am 09:56 Sunny 79 26.1 77 25 94 94 undefined N/A 30.01 1016 10 16 0.00 0.00
10:56 am 10:56 Mostly Sunny 82 27.8 76 24.4 82 82 SSW 8 13 30.01 1016 10 16 0.00 0.00
11:56 am 11:56 Sunny 84 28.9 76 24.4 77 77 SSW 7 11 30.02 1017 10 16 0.00 0.00
12:56 pm 12:56 Partly Cloudy 87 30.6 76 24.4 70 70 SSW 8 13 30.00 1016 10 16 0.00 0.00
1:56 pm 13:56 Mostly Sunny 87 30.6 76 24.4 70 70 SSW 8 13 29.98 1015 10 16 0.00 0.00
2:56 pm 14:56 Mostly Cloudy 89 31.7 75 23.9 63 63 SSW 7 11 29.94 1014 10 16 0.00 0.00
3:56 pm 15:56 Mostly Sunny 87 30.6 75 23.9 68 68 SSW 8 13 29.93 1013 10 16 0.00 0.00
4:56 pm 16:56 Sunny 79 26.1 73 22.8 82 82 S 8 13 29.95 1014 10 16 0.00 0.00
5:56 pm 17:56 Sunny 78 25.6 75 23.9 90 90 SSW 10 17 29.97 1015 10 16 0.00 0.00
6:56 pm 18:56 Mostly Sunny 76 24.4 76 24.4 100 100 undefined N/A 29.96 1015 10 16 0.00 0.00
7:56 pm 19:56 Mostly Cloudy with Nearby Thunderstorms 76 24.4 70 21.1 82 82 WNW 17 28 30.03 1017 10 16 0.00 0.00
8:12 pm 20:12 Cloudy 72 22 70 21 94 94 NNW 20 31 30.02 1017 10 16 0.00 0.00
8:26 pm 20:26 Cloudy with Light Rain 70 21 70 21 100 100 N 12 19 30.03 1017 10 16 0.01 0.13
8:56 pm 20:56 Cloudy with Light Rain 69 20.6 N/A N/A NNW 10 17 30.02 1017 10 16 0.01 0.13
9:56 pm 21:56 Mostly Cloudy 69 20.6 N/A N/A S 3 6 30.01 1016 10 16 0.01 0.13
10:56 pm 22:56 Clear N/A N/A N/A S 7 11 30.04 1017 10 16 0.01 0.13
11:56 pm 23:56 Cloudy 70 21.1 N/A N/A S 8 13 29.93 1014 10 16 0.00 0.00

Powered by AerisWeather